Date,TemperatureHighF,TemperatureAvgF,TemperatureLowF,DewpointHighF,DewpointAvgF,DewpointLowF,HumidityHigh,HumidityAvg,HumidityLow,PressureMaxIn,PressureMinIn,WindSpeedMaxMPH,WindSpeedAvgMPH,GustSpeedMaxMPH,PrecipitationSumIn
2013-2-1,22.7,17.6,12.0,8.9,4.3,-1.6,66,55,47,29.98,29.40,18,2,25,0.00
2013-2-2,21.4,14.5,7.4,12.2,4.4,-4.0,87,65,46,30.15,29.97,15,1,23,0.00
2013-2-3,26.6,17.9,4.8,12.8,8.9,1.6,97,69,50,30.03,29.68,4,0,6,0.01
2013-2-4,21.1,16.3,8.5,12.4,5.7,-4.7,83,64,45,29.83,29.63,16,2,19,0.00
2013-2-5,24.4,13.1,3.6,6.6,-1.6,-6.8,74,53,30,29.98,29.82,19,1,19,0.01
2013-2-6,29.7,18.0,10.9,18.3,7.4,-11.5,95,65,33,30.23,29.90,14,1,17,0.00
2013-2-7,18.8,12.7,7.2,2.8,-4.8,-11.5,67,46,29,30.54,30.21,13,1,21,0.00
2013-2-8,17.2,13.9,9.9,14.1,8.8,-4.0,92,80,48,30.52,29.94,10,0,11,0.00
2013-2-9,15.1,11.6,8.8,12.1,8.5,4.7,88,87,83,30.18,29.79,19,3,19,0.00
2013-2-10,32.4,17.2,5.9,15.8,7.5,1.0,84,66,42,30.36,30.18,9,1,11,0.01
2013-2-11,27.1,20.4,9.9,25.1,16.1,3.9,93,84,52,30.33,29.58,2,0,2,0.00
2013-2-12,36.4,33.3,26.2,32.3,27.2,23.6,94,78,71,29.75,29.51,15,2,19,0.04
2013-2-13,38.4,30.7,22.7,24.6,21.2,16.7,82,68,52,29.79,29.70,14,1,16,0.12
2013-2-14,37.7,27.5,21.6,22.1,19.2,16.9,86,72,48,29.97,29.67,10,1,12,0.01
2013-2-15,43.9,31.7,20.8,28.2,22.6,17.1,87,70,50,29.97,29.84,10,1,13,0.00
2013-2-16,32.5,28.3,21.0,25.2,18.8,5.8,89,68,51,29.92,29.75,10,1,15,0.01
2013-2-17,22.2,18.4,15.5,10.3,4.4,-4.2,76,55,34,29.75,29.19,26,7,33,0.00
2013-2-18,25.7,19.6,12.0,7.1,-0.2,-6.3,59,42,25,30.02,29.36,36,5,36,0.00
2013-2-19,39.3,26.1,11.4,28.5,10.2,-2.2,93,55,22,30.11,29.54,6,0,7,0.00
2013-2-20,31.2,27.4,23.0,29.5,18.9,12.7,94,71,57,29.63,29.41,20,3,39,0.07
2013-2-21,24.6,20.3,14.5,18.7,10.8,4.6,80,66,56,30.20,29.57,22,3,28,0.00
2013-2-22,40.0,28.5,21.3,21.4,18.2,14.9,77,66,45,30.39,30.19,10,2,16,0.03
2013-2-23,30.3,27.5,24.4,27.0,23.7,19.9,93,85,78,30.30,29.98,1,0,3,0.01
2013-2-24,32.8,29.5,27.1,30.5,27.6,25.3,94,93,88,29.99,29.75,3,0,4,0.01
2013-2-25,38.2,29.8,23.1,31.5,26.7,21.0,94,88,73,30.22,29.88,6,0,9,0.07
2013-2-26,36.1,31.3,25.8,29.1,26.7,23.0,92,83,70,30.34,30.21,3,0,4,0.01
2013-2-27,32.2,29.4,26.5,29.6,27.0,22.8,94,90,84,30.21,29.70,5,0,10,0.02
2013-2-28,39.7,31.4,28.7,34.0,29.3,27.1,94,92,79,29.70,29.56,4,0,7,0.11